Other Public Products
Issued by NWS Grand Forks, ND

Home | Current Version | Previous Version | Graphics & Text | Print | Product List | Glossary On
Versions: 1 2 3 4 5 6 7 8 9 10 11 12 13 14 15 16 17 18 19 20 21 22 23 24 25 26 27 28 29 30 31 32 33 34 35 36 37 38 39 40 41 42 43 44 45 46 47 48 49 50
607
FPUS83 KFGF 222131
OPUFGF
PRAIRIE TO PINES WEATHER ROUNDUP
NATIONAL WEATHER SERVICE EASTERN NORTH DAKOTA/GRAND FORKS ND
300 PM CST WED FEB 22 2017

 **SATELLITE DATA USED TO AUGMENT SKY COVER AT AUTOMATED STATIONS**
 *****  WEATHER ACROSS EASTERN NORTH DAKOTA  *****

CITY           SKY/WX    TMP DP  RH WIND       PRES   REMARKS
GRAND FORKS    CLOUDY    35  24  64 N20       29.81R WCI  24
GRAND FORKS AF CLOUDY    34  28  79 N15       29.82R WCI  24
GRAND CITY NWS NOT AVBL
BUXTON         NOT AVBL
DEVILS LAKE    CLOUDY    31  27  85 N15       29.85R WCI  20
FARGO          LGT SNOW  34  33  96 N20       29.76R FOG     WCI  23
WAHPETON ARPT  CLOUDY    34  32  93 N17       29.72R WCI  23
$$

 *****  WEATHER ACROSS CENTRAL AND WESTERN NORTH DAKOTA  *****

CITY           SKY/WX    TMP DP  RH WIND       PRES   REMARKS
JAMESTOWN      LGT SNOW  32  29  88 N16       29.81R FOG     WCI  21
BISMARCK       LGT SNOW  35  32  88 N17       29.86R FOG     WCI  25
MINOT          CLOUDY    34  26  72 N9        29.88R
MINOT AFB      FAIR      33  25  73 N7        29.88R
GARRISON         N/A     32  28  85 N7        29.87R
WILLISTON      CLOUDY    33  25  72 NE7       29.94R
DICKINSON      LGT SNOW  29  26  89 N13       29.86R FOG     WCI  19
HETTINGER      CLOUDY    32  28  85 N15       29.86R WCI  22
$$

 *****  OTHER OBSERVATIONS NORTHEAST NORTH DAKOTA  *****

CITY           SKY/WX    TMP DP  RH WIND       PRES   REMARKS
WALHALLA       NOT AVBL
LANGDON        NOT AVBL
CAVALIER         N/A     36  28  75 N12G17    29.84R
GRAFTON        CLOUDY    34  30  86 N15       29.84R WCI  24
CANDO          NOT AVBL
FORT TOTTEN      N/A     32  29  89 N7        29.95S
ROLLA          FAIR      30  27  86 N13       29.86R WCI  20
RUGBY            N/A     32  28  86 N9        29.87R WCI  24
 ***** THE ABOVE OBSERVATIONS ARE NON NWS ARE NOT QUALITY
        CONTROLLED AND MAY MIS-REPORT RAIN FOR SNOW...
$$

 *****  OTHER OBSERVATIONS SOUTHEAST NORTH DAKOTA *****

CITY           SKY/WX    TMP DP  RH WIND       PRES   REMARKS
COOPERSTOWN    CLOUDY    32  28  86 N20       29.82R WCI  20
VALLEY CITY    LGT RAIN  32  32 100 N21G29    29.81R WCI  20
OAKES          NOT AVBL
GWINNER        CLOUDY    34  34 100 N20       29.76R VSB 1   WCI  22
SHEYENNE NWR     N/A     33  32  96 N14       29.95S WCI  23
BUFFALO        NOT AVBL
WYNDMERE         N/A     34  34 100 N16         N/A  WCI  23
 ***** THE ABOVE OBSERVATIONS ARE NON NWS ARE NOT QUALITY
       CONTROLLED AND MAY MIS-REPORT RAIN FOR SNOW...
$$

  *****  WEATHER ACROSS NORTHERN MINNESOTA  *****

CITY           SKY/WX    TMP DP  RH WIND       PRES   REMARKS
FLAG ISLAND    CLOUDY    34  23  64 N13       29.76S WCI  25
WARROAD        CLOUDY    34  27  75 N13       29.78S WCI  25
ROSEAU         PTSUNNY   36  27  69 N13       29.78S
HALLOCK        CLOUDY    34  30  86 N12       29.82R
THF RVR FALLS  CLOUDY    33  27  78 N16       29.77R WCI  23
HALSTAD          N/A     34  28  80 N23         N/A  WCI  22
FOSSTON        LGT SNOW  30  30 100 N15G23    29.73R WCI  19
BAUDETTE       CLOUDY    32  25  75 N14       29.74S WCI  22
WASKISH        CLOUDY    34  30  86 N9        29.72R
CROOKSTON      CLOUDY    34  28  80 N15G22    29.80R WCI  24
$$
  *****  WEATHER ACROSS CENTRAL AND WEST MINNESOTA  *****

CITY           SKY/WX    TMP DP  RH WIND       PRES   REMARKS
BEMIDJI        LGT SNOW  32  32  98 N9G17     29.69R WCI  24
PARK RAPIDS    LGT SNOW  34  31  88 N15       29.65R VSB 3/4 WCI  24
WADENA         LGT RAIN  36  36 100 N12       29.64R
DETROIT LAKES  LGT SNOW  34  32  93 N12       29.70R
MOORHEAD       LGT RAIN  34  32  93 N22       29.75R WCI  22
FERGUS FALLS   PTSUNNY   36  36 100 N14G21    29.71R
ELBOW LAKE     CLOUDY    36  36  99 NW13      29.65R
MORRIS MN      CLOUDY    39  37  93 NW20      29.64R
STAPLES        RAIN      37  37 100 N10       29.64R
WHEATON        CLOUDY    37  36  93 NW20G25   29.71R
$$
  *****  WEATHER ELSEWHERE ACROSS MINNESOTA  *****

CITY           SKY/WX    TMP DP  RH WIND       PRES   REMARKS
DULUTH         CLOUDY    42  35  76 SE7       29.58S
INTRNTL FALLS  CLOUDY    33  29  85 N14       29.70F WCI  23
ELY            CLOUDY    39  32  75 N5        29.63R
CLOQUET        FAIR      45  34  65 SE6       29.57F
BRAINERD       LGT RAIN  40  39  97 W8        29.61R FOG
HIBBING        LGT RAIN  38  34  85 N8        29.60F
ALEXANDRIA     PTSUNNY   43  38  82 N14       29.61R
SAINT CLOUD    PTSUNNY   54  41  61 CALM      29.56R
MINNEAPOLIS    PTSUNNY   56  43  61 S3        29.54S
$$

  *****  WEATHER ACROSS SOUTH DAKOTA  *****

CITY           SKY/WX    TMP DP  RH WIND       PRES   REMARKS
SIOUX FALLS    PTSUNNY   58  43  57 W20G30    29.64R
BROOKINGS      FAIR      53  42  66 NW16      29.63R
WATERTOWN      CLOUDY    44  37  76 NW18      29.68R
HURON          FAIR      53  40  61 N20G25    29.70R
SISSETON         N/A     39  37  92 N23       29.69R
ABERDEEN       LGT SNOW  36  32  85 N16       29.77R FOG
MITCHELL       FAIR      58  40  51 NW26      29.69R
PIERRE         FAIR      53  36  52 NW22G30   29.72S
MOBRIDGE       FLURRIES  37  32  82 N17       29.77R
RAPID CITY     FAIR      56  17  21 NW24G32   29.74S
$$

  *****  SOME WEATHER IN NEARBY STATES *****

CITY           SKY/WX    TMP DP  RH WIND       PRES   REMARKS
GLASGOW MT     CLOUDY    31  28  89 SW3       29.95S
GREAT FALLS MT CLOUDY    37  25  61 N10       29.89S
CHEYENNE WY    CLOUDY    44  20  38 NW20      29.80F
SCOTTSBLUFF NE FAIR      56  17  21 W20G28    29.79F
OMAHA NE       FAIR      73  36  25 NW17      29.62S
DES MOINES IA  FAIR      71  37  28 W16       29.59S
DAVENPORT IA   FAIR      71  51  49 S22G29    29.59F
CHICAGO IL     FAIR      67  53  61 S17       29.65F
EAU CLAIRE WI  FAIR      56  42  59 NW7       29.53F
LA CROSSE WI   FAIR      61  40  45 SW9       29.53F
$$

  *****  SOME NATIONAL WEATHER *****

CITY           SKY/WX    TMP DP  RH WIND       PRES   REMARKS
LA GUARDIA NY  PTSUNNY   57  39  51 S8        29.90S
RALEIGH NC     CLOUDY    70  49  47 S3        29.93F
ATLANTA GA     CLOUDY    69  59  70 E17       29.83S
NEW ORLEANS LA FAIR      73  54  51 N5        29.78F
OKLAHOMA CITY  FAIR      80  36  20 SW12      29.71F
ALBUQUERQUE NM PTSUNNY   62  33  33 SW7       29.97F
SALT LAKE CITY CLOUDY    41  34  76 S3        29.86F
LOS ANGELES CA FAIR      60  51  72 W16       30.08F
BOISE ID       PTSUNNY   39  28  64 NW8       29.92F
SEATTLE WA     FAIR      43  33  68 SW6       30.18F
$$

*** WEATHER ACROSS MANITOBA...SASKATCHEWAN AND ONTARIO ***
                ***ONTARIO***

CITY           SKY/WX    TMP DP  RH WIND       PRES   REMARKS
GERALDTON      CLOUDY    36  27  69 N8        29.63S
THUNDER BAY    PTSUNNY   43  30  61 NW10      29.62F
SIOUX LOOKOUT  CLOUDY    32  23  69 N6G18     29.71S
TORONTO        CLOUDY    43  41  93 SE7       29.78F FOG
BIG TROUT LK   CLOUDY    12   3  67 NW15G22   29.72R HAZE    WCI  -4
PICKLE LAKE    CLOUDY    32  21  64 W9G17     29.65S WCI  24
DRYDEN         PTSUNNY   32  23  69 W8        29.72R WCI  25
KENORA         PTSUNNY   32  21  64 N12       29.76R WCI  23
$$
                *** MANITOBA***

CITY           SKY/WX    TMP DP  RH WIND       PRES   REMARKS
BRANDON        CLOUDY    36  27  69 NW10      29.87R
DAUPHIN        PTSUNNY   30  23  74 NE6       29.90R WCI  24
ISLAND LAKE    LGT SNOW   9   0  66 NW9       29.83R DRFTSNOWWCI  -5
PILOT MOUND      N/A     34  23  64 NW7         N/A
THE PAS        CLOUDY    21   9  58 NW14G21   29.93R WCI   8
THOMPSON       LGT SNOW   1  -4  78 NW9G17    29.92R DRFTSNOWWCI -14
WINNIPEG       CLOUDY    34  28  80 NW14      29.84R WCI  24
LYNN LAKE      LGT SNOW   3   0  85 N9        29.98R WCI -11
CHURCHILL      PTSUNNY   -2  -8  78 NE20      30.03R WCI -25
GILLAM         LGT SNOW   0  -9  65 N16       29.89R WCI -21
$$
                ***SASKATCHEWAN***

CITY           SKY/WX    TMP DP  RH WIND       PRES   REMARKS
ESTEVAN        CLOUDY    32  28  86 NW9       29.91S WCI  24
KINDERSLEY     LGT SNOW  27  23  86 N12       29.97R FOG     WCI  16
LLOYDMINSTER   FLURRIES  23  18  80 NW14G20   29.99R WCI  11
PRINCE ALBERT  FLURRIES  25  14  63 N13       29.97F WCI  13
REGINA         PTSUNNY   36  28  75 W12       29.92R
YORKTON        CLOUDY    32  25  74 N6        29.90R



USA.gov is the U.S. government's official web portal to all federal, state and local government web resources and services.